Find Starlink 11668

NORAD ID: 63557 Int'l Des: 2025-075 Owner: SPXS Country: US Constellation: starlink operational
LEOCIRCULAR

实时位置

正在加载3D地球...

关于 Starlink 11668

正在加载描述...

即将过境

Passes for default location (London). Set your location on the main map for personalized predictions.

高度历史

Loading altitude history...

两行轨道根数

1 63557U 25075K 26124.50642328 .00120197 00000-0 92639-3 0 9992
2 63557 42.9995 177.6680 0001611 285.6253 74.4437 15.70848529 62029
Epoch: May 4, 2026 • Age: 9 hours

当前状态

高度 355.2 km
速度 7.70 km/s
星下点 12.95°N, 5.91°E
发射日期 Apr 13, 2025
运行时间 1 years
类型 internet

技术详情

分类 Payload
质量 960.00 kg
干质量 910.00 kg
总质量 960.00 kg
长度 0.30 m
直径 4.10 m
跨度 29.00 m
形状 Box + pan
制造商 SPXS
平台类型 Starlink V2MD
阶段状态 In Orbit
所有者/国家 SPXS/US

Most Searched